GW2746 Weather Reports


Display with metric or nautical units.
time (UTC)temp
F
wind
direction
speed
MPH
gust
MPH
rain 1hr
in
rain 24hr
in
rain mn
in
humidity
%
barometer
mb
20240530040156 70 132 3.0 7.0 0.00 0.00 0.00 54 1018.8
20240530035651 70 183 1.0 11.0 0.00 0.00 0.00 54 1018.8
20240530035131 70 129 2.0 11.0 0.00 0.00 0.00 54 1018.8
20240530034638 70 127 3.0 7.0 0.00 0.00 0.00 54 1018.7
20240530034125 71 87 4.0 10.0 0.00 0.00 0.00 54 1018.6
20240530033620 71 119 4.0 10.0 0.00 0.00 0.00 54 1018.7
20240530033122 71 179 3.0 7.0 0.00 0.00 0.00 54 1018.8
20240530032628 71 174 1.0 13.0 0.00 0.00 0.00 54 1018.8
20240530032131 71 133 6.0 13.0 0.00 0.00 0.00 53 1018.7
20240530031646 72 90 6.0 8.0 0.00 0.00 0.00 53 1018.6
20240530031127 72 135 2.0 7.0 0.00 0.00 0.00 53 1018.5
20240530030616 72 131 2.0 8.0 0.00 0.00 0.00 53 1018.3
20240530030128 72 171 5.0 11.0 0.00 0.00 0.00 52 1018.3
20240530025635 72 40 1.0 11.0 0.00 0.00 0.00 52 1018.2
20240530025120 72 192 4.0 9.0 0.00 0.00 0.00 52 1018.1
20240530024627 73 133 3.0 8.0 0.00 0.00 0.00 52 1018.1
20240530024130 73 135 3.0 7.0 0.00 0.00 0.00 51 1018.0
20240530023658 73 77 3.0 9.0 0.00 0.00 0.00 51 1018.0
20240530023120 73 166 3.0 9.0 0.00 0.00 0.00 51 1018.1
20240530022632 73 129 2.0 6.0 0.00 0.00 0.00 50 1018.0
20240530022132 74 76 2.0 6.0 0.00 0.00 0.00 50 1018.0
20240530021621 74 133 2.0 6.0 0.00 0.00 0.00 49 1018.0
20240530021121 74 114 3.0 6.0 0.00 0.00 0.00 49 1018.1
20240530020653 74 120 2.0 9.0 0.00 0.00 0.00 49 1018.1
20240530020145 74 9 1.0 9.0 0.00 0.00 0.00 49 1018.0
20240530015635 75 133 2.0 7.0 0.00 0.00 0.00 48 1018.0
20240530015136 75 156 4.0 7.0 0.00 0.00 0.00 48 1018.0
20240530014624 75 175 1.0 5.0 0.00 0.00 0.00 48 1018.0
20240530014130 75 152 1.0 7.0 0.00 0.00 0.00 47 1017.9
20240530013644 76 160 1.0 7.0 0.00 0.00 0.00 47 1018.0
20240530013127 76 73 1.0 6.0 0.00 0.00 0.00 47 1018.0
20240530012638 76 160 2.0 9.0 0.00 0.00 0.00 46 1018.0
20240530012139 76 75 2.0 9.0 0.00 0.00 0.00 45 1018.1
20240530011625 76 131 2.0 7.0 0.00 0.00 0.00 45 1018.1
20240530011130 77 69 3.0 7.0 0.00 0.00 0.00 44 1018.1
20240530010641 77 200 3.0 8.0 0.00 0.00 0.00 44 1018.0
20240530010129 77 154 4.0 8.0 0.00 0.00 0.00 44 1018.1
20240530005635 77 277 4.0 8.0 0.00 0.00 0.00 44 1018.1
20240530005119 77 147 2.0 10.0 0.00 0.00 0.00 44 1018.1
20240530004627 77 151 4.0 10.0 0.00 0.00 0.00 44 1018.2
20240530004129 78 173 4.0 11.0 0.00 0.00 0.00 43 1018.2
20240530003638 78 110 2.0 11.0 0.00 0.00 0.00 42 1018.2
20240530003120 78 141 5.0 9.0 0.00 0.00 0.00 42 1018.3
20240530002627 79 197 3.0 6.0 0.00 0.00 0.00 42 1018.3
20240530002130 79 171 2.0 8.0 0.00 0.00 0.00 42 1018.3
20240530001640 79 185 3.0 11.0 0.00 0.00 0.00 42 1018.3
20240530001119 79 126 3.0 11.0 0.00 0.00 0.00 41 1018.4
20240530000627 79 168 4.0 8.0 0.00 0.00 0.00 41 1018.4
20240530000137 80 119 5.0 6.0 0.00 0.00 0.00 40 1018.5
20240529235630 80 143 2.0 6.0 0.00 0.00 0.00 40 1018.6
20240529235136 80 177 3.0 7.0 0.00 0.00 0.00 41 1018.6
20240529234623 80 123 3.0 7.0 0.00 0.00 0.00 41 1018.5
20240529234126 80 217 2.0 6.0 0.00 0.00 0.00 41 1018.6
20240529233635 80 253 3.0 8.0 0.00 0.00 0.00 40 1018.8
20240529233143 80 256 5.0 16.0 0.00 0.00 0.00 40 1018.8
20240529232630 80 146 2.0 11.0 0.00 0.00 0.00 40 1018.9
20240529232132 80 172 2.0 11.0 0.00 0.00 0.00 41 1019.0
20240529231623 80 299 4.0 9.0 0.00 0.00 0.00 40 1019.0
20240529231144 80 157 3.0 9.0 0.00 0.00 0.00 40 1019.0
20240529230621 81 134 4.0 9.0 0.00 0.00 0.00 40 1019.1
20240529230136 81 185 3.0 9.0 0.00 0.00 0.00 39 1019.1
20240529225624 81 123 3.0 8.0 0.00 0.00 0.00 41 1019.1
20240529225126 81 195 2.0 8.0 0.00 0.00 0.00 40 1019.1
20240529224637 81 102 3.0 7.0 0.00 0.00 0.00 40 1019.1
20240529224138 80 168 2.0 9.0 0.00 0.00 0.00 39 1019.2
20240529223625 80 144 5.0 9.0 0.00 0.00 0.00 40 1019.2
20240529223126 81 198 4.0 8.0 0.00 0.00 0.00 39 1019.3
20240529222635 81 186 4.0 8.0 0.00 0.00 0.00 39 1019.3
20240529222137 82 213 2.0 5.0 0.00 0.00 0.00 38 1019.3
20240529221645 81 215 1.0 9.0 0.00 0.00 0.00 40 1019.4
20240529221124 81 55 2.0 9.0 0.00 0.00 0.00 41 1019.3
20240529220653 81 92 2.0 9.0 0.00 0.00 0.00 40 1019.4
20240529220122 80 175 2.0 9.0 0.00 0.00 0.00 39 1019.5
20240529215631 80 308 2.0 7.0 0.00 0.00 0.00 39 1019.5
20240529215135 80 164 2.0 9.0 0.00 0.00 0.00 38 1019.6
20240529214626 80 143 4.0 9.0 0.00 0.00 0.00 40 1019.7
20240529214128 80 157 4.0 11.0 0.00 0.00 0.00 39 1019.6
20240529213636 80 133 4.0 11.0 0.00 0.00 0.00 39 1019.6
20240529213138 81 136 2.0 11.0 0.00 0.00 0.00 40 1019.6
20240529212645 80 232 2.0 11.0 0.00 0.00 0.00 38 1019.8
20240529212148 80 156 3.0 10.0 0.00 0.00 0.00 40 1019.8
20240529211621 80 167 4.0 10.0 0.00 0.00 0.00 40 1019.9
20240529211125 80 140 2.0 7.0 0.00 0.00 0.00 38 1020.0
20240529210638 80 233 3.0 8.0 0.00 0.00 0.00 39 1020.1
20240529210125 80 159 1.0 8.0 0.00 0.00 0.00 39 1020.2
20240529205656 80 359 2.0 9.0 0.00 0.00 0.00 42 1020.2
20240529205157 80 182 5.0 13.0 0.00 0.00 0.00 38 1020.3
20240529204627 80 60 3.0 5.0 0.00 0.00 0.00 39 1020.4
20240529204132 79 65 1.0 8.0 0.00 0.00 0.00 40 1020.5
20240529203621 79 120 5.0 11.0 0.00 0.00 0.00 38 1020.6
20240529203129 79 258 4.0 11.0 0.00 0.00 0.00 38 1020.6
20240529202623 79 44 3.0 8.0 0.00 0.00 0.00 40 1020.6
20240529202125 79 119 3.0 5.0 0.00 0.00 0.00 39 1020.8
20240529201636 79 234 3.0 6.0 0.00 0.00 0.00 39 1020.8
20240529201140 79 125 5.0 7.0 0.00 0.00 0.00 37 1020.9
20240529200632 79 169 4.0 7.0 0.00 0.00 0.00 38 1020.9
20240529200119 79 210 4.0 7.0 0.00 0.00 0.00 38 1021.0
20240529195626 79 237 3.0 7.0 0.00 0.00 0.00 40 1021.1
20240529195132 79 189 4.0 6.0 0.00 0.00 0.00 38 1021.1
20240529194620 79 136 1.0 11.0 0.00 0.00 0.00 40 1021.2
20240529194123 79 210 5.0 11.0 0.00 0.00 0.00 40 1021.3
20240529193658 79 179 3.0 6.0 0.00 0.00 0.00 41 1021.3
20240529193118 78 262 1.0 7.0 0.00 0.00 0.00 40 1021.3
20240529192651 78 121 3.0 7.0 0.00 0.00 0.00 39 1021.5
20240529192136 78 9 4.0 7.0 0.00 0.00 0.00 38 1021.4
20240529191623 78 162 2.0 8.0 0.00 0.00 0.00 41 1021.5
20240529191130 77 128 3.0 8.0 0.00 0.00 0.00 42 1021.6
20240529190621 77 248 2.0 8.0 0.00 0.00 0.00 40 1021.6
20240529190129 77 181 4.0 8.0 0.00 0.00 0.00 39 1021.6
20240529185624 77 167 4.0 11.0 0.00 0.00 0.00 41 1021.7
20240529185144 77 110 2.0 11.0 0.00 0.00 0.00 40 1021.7
20240529184650 77 146 4.0 11.0 0.00 0.00 0.00 44 1021.7
20240529184151 76 162 1.0 10.0 0.00 0.00 0.00 43 1021.8
20240529183639 77 123 5.0 10.0 0.00 0.00 0.00 41 1021.9
20240529183146 76 203 2.0 7.0 0.00 0.00 0.00 44 1021.9
20240529182632 76 100 4.0 7.0 0.00 0.00 0.00 42 1021.9
20240529182115 76 135 3.0 7.0 0.00 0.00 0.00 44 1021.9
20240529181627 75 148 4.0 9.0 0.00 0.00 0.00 44 1022.0
20240529181130 75 123 6.0 9.0 0.00 0.00 0.00 46 1022.1
20240529180659 75 126 6.0 9.0 0.00 0.00 0.00 45 1022.2
20240529180124 76 125 7.0 9.0 0.00 0.00 0.00 42 1022.3
20240529175632 76 19 4.0 9.0 0.00 0.00 0.00 45 1022.4
20240529175135 75 136 4.0 7.0 0.00 0.00 0.00 44 1022.4
20240529174649 75 171 4.0 8.0 0.00 0.00 0.00 46 1022.5
20240529174129 75 39 1.0 8.0 0.00 0.00 0.00 47 1022.6
20240529173622 75 67 2.0 8.0 0.00 0.00 0.00 45 1022.6
20240529173130 75 95 4.0 7.0 0.00 0.00 0.00 46 1022.6
20240529172620 74 139 3.0 8.0 0.00 0.00 0.00 46 1022.7
20240529172126 73 236 4.0 11.0 0.00 0.00 0.00 46 1022.7
20240529171631 74 142 5.0 8.0 0.00 0.00 0.00 46 1022.7
20240529171116 73 189 2.0 8.0 0.00 0.00 0.00 46 1022.7
20240529170638 74 133 4.0 8.0 0.00 0.00 0.00 44 1022.8
20240529170130 74 144 6.0 8.0 0.00 0.00 0.00 47 1022.8
20240529165619 74 74 2.0 7.0 0.00 0.00 0.00 47 1022.9
20240529165124 74 67 2.0 9.0 0.00 0.00 0.00 50 1023.0
20240529164636 74 152 3.0 9.0 0.00 0.00 0.00 47 1023.1
20240529164156 74 19 4.0 7.0 0.00 0.00 0.00 48 1023.2
20240529163623 73 38 3.0 5.0 0.00 0.00 0.00 50 1023.2
20240529163130 73 69 3.0 7.0 0.00 0.00 0.00 49 1023.2
20240529162622 72 111 5.0 8.0 0.00 0.00 0.00 48 1023.3
20240529162123 72 46 3.0 8.0 0.00 0.00 0.00 50 1023.2
20240529161631 72 129 4.0 8.0 0.00 0.00 0.00 49 1023.2
20240529161134 72 203 2.0 9.0 0.00 0.00 0.00 50 1023.2
20240529160626 72 87 3.0 9.0 0.00 0.00 0.00 50 1023.3
20240529160121 72 36 3.0 6.0 0.00 0.00 0.00 50 1023.4
20240529155629 72 29 3.0 6.0 0.00 0.00 0.00 49 1023.4
20240529155116 72 198 3.0 7.0 0.00 0.00 0.00 50 1023.6
20240529154630 72 125 5.0 7.0 0.00 0.00 0.00 50 1023.5
20240529154136 71 180 2.0 7.0 0.00 0.00 0.00 52 1023.5
20240529153646 71 177 2.0 7.0 0.00 0.00 0.00 53 1023.6
20240529153129 70 119 1.0 8.0 0.00 0.00 0.00 53 1023.6
20240529152656 70 147 3.0 11.0 0.00 0.00 0.00 52 1023.7
20240529152137 70 185 5.0 11.0 0.00 0.00 0.00 52 1023.8
20240529151623 70 326 2.0 11.0 0.00 0.00 0.00 53 1023.7
20240529151128 70 145 5.0 11.0 0.00 0.00 0.00 51 1023.8
20240529150621 69 104 2.0 8.0 0.00 0.00 0.00 54 1023.8
20240529150128 69 71 2.0 8.0 0.00 0.00 0.00 54 1023.9
20240529145635 69 341 2.0 7.0 0.00 0.00 0.00 55 1023.9
20240529145137 69 113 2.0 7.0 0.00 0.00 0.00 55 1024.0
20240529144645 69 133 2.0 7.0 0.00 0.00 0.00 55 1024.0
20240529144129 69 19 2.0 8.0 0.00 0.00 0.00 56 1024.1
20240529143643 68 19 2.0 8.0 0.00 0.00 0.00 56 1024.1
20240529143125 68 71 4.0 8.0 0.00 0.00 0.00 56 1024.2
20240529142635 68 97 2.0 6.0 0.00 0.00 0.00 56 1024.2
20240529142144 67 156 2.0 7.0 0.00 0.00 0.00 58 1024.3
20240529141631 67 126 4.0 7.0 0.00 0.00 0.00 57 1024.2
20240529141132 67 122 3.0 6.0 0.00 0.00 0.00 58 1024.2
20240529140620 66 151 3.0 6.0 0.00 0.00 0.00 58 1024.3
20240529140132 66 170 2.0 6.0 0.00 0.00 0.00 60 1024.2
20240529135618 65 127 2.0 7.0 0.00 0.00 0.00 60 1024.1
20240529135119 65 138 2.0 7.0 0.00 0.00 0.00 61 1024.2
20240529134649 65 148 5.0 6.0 0.00 0.00 0.00 61 1024.1
20240529134130 64 48 1.0 6.0 0.00 0.00 0.00 62 1024.2
20240529133622 64 170 2.0 5.0 0.00 0.00 0.00 62 1024.2
20240529133123 64 117 2.0 5.0 0.00 0.00 0.00 63 1024.1
20240529132632 64 28 1.0 5.0 0.00 0.00 0.00 64 1024.1
20240529132137 63 88 2.0 6.0 0.00 0.00 0.00 65 1024.2
20240529131623 63 69 1.0 6.0 0.00 0.00 0.00 66 1024.2
20240529131128 62 63 2.0 5.0 0.00 0.00 0.00 67 1024.3
20240529130620 61 134 3.0 5.0 0.00 0.00 0.00 68 1024.2
20240529130127 61 57 1.0 4.0 0.00 0.00 0.00 70 1024.4
20240529125635 60 138 2.0 4.0 0.00 0.00 0.00 71 1024.3
20240529125142 59 65 3.0 4.0 0.00 0.00 0.00 72 1024.2
20240529124632 59 63 1.0 5.0 0.00 0.00 0.00 73 1024.2
20240529124136 59 70 2.0 5.0 0.00 0.00 0.00 74 1024.2
20240529123644 58 59 1.0 5.0 0.00 0.00 0.00 74 1024.2
20240529123145 58 42 1.0 5.0 0.00 0.00 0.00 74 1024.2
20240529122636 58 62 2.0 4.0 0.00 0.00 0.00 74 1024.2
20240529122138 58 66 1.0 4.0 0.00 0.00 0.00 74 1024.3
20240529121626 58 54 2.0 4.0 0.00 0.00 0.00 75 1024.2
20240529121152 57 19 2.0 4.0 0.00 0.00 0.00 75 1024.1
20240529120620 57 38 2.0 5.0 0.00 0.00 0.00 76 1024.3
20240529120151 56 91 1.0 5.0 0.00 0.00 0.00 78 1024.2
20240529115638 56 60 2.0 4.0 0.00 0.00 0.00 79 1024.1
20240529115120 55 67 2.0 4.0 0.00 0.00 0.00 79 1024.2
20240529114627 55 56 1.0 2.0 0.00 0.00 0.00 80 1024.2
20240529114131 54 55 1.0 2.0 0.00 0.00 0.00 80 1024.1
20240529113618 54 55 0.0 2.0 0.00 0.00 0.00 79 1024.2
20240529113121 54 55 1.0 2.0 0.00 0.00 0.00 80 1024.1
20240529112627 54 26 1.0 2.0 0.00 0.00 0.00 80 1024.0
20240529112130 54 26 1.0 2.0 0.00 0.00 0.00 81 1023.9
20240529111617 53 26 1.0 2.0 0.00 0.00 0.00 81 1024.1
20240529111140 53 26 0.0 1.0 0.00 0.00 0.00 81 1024.0
20240529110632 53 26 0.0 2.0 0.00 0.00 0.00 81 1023.9
20240529110118 54 26 1.0 2.0 0.00 0.00 0.00 81 1023.8
20240529105627 54 26 0.0 0.0 0.00 0.00 0.00 80 1023.8
20240529105130 54 26 0.0 2.0 0.00 0.00 0.00 80 1023.9
20240529104621 54 26 0.0 2.0 0.00 0.00 0.00 80 1023.8
20240529104124 54 26 0.0 1.0 0.00 0.00 0.00 80 1023.7
20240529103652 54 26 0.0 1.0 0.00 0.00 0.00 80 1023.7
20240529103136 54 26 0.0 2.0 0.00 0.00 0.00 80 1023.7
20240529102627 54 26 1.0 2.0 0.00 0.00 0.00 80 1023.6
20240529102130 54 26 1.0 1.0 0.00 0.00 0.00 80 1023.5
20240529101621 54 26 0.0 2.0 0.00 0.00 0.00 80 1023.4
20240529101127 54 26 1.0 2.0 0.00 0.00 0.00 80 1023.3
20240529100620 54 26 0.0 1.0 0.00 0.00 0.00 80 1023.4
20240529100129 54 26 1.0 1.0 0.00 0.00 0.00 80 1023.4
20240529095624 54 26 0.0 1.0 0.00 0.00 0.00 80 1023.3
20240529095132 54 26 0.0 0.0 0.00 0.00 0.00 78 1023.3
20240529094625 54 26 0.0 1.0 0.00 0.00 0.00 78 1023.3
20240529094127 55 26 0.0 1.0 0.00 0.00 0.00 78 1023.1
20240529093619 55 26 0.0 1.0 0.00 0.00 0.00 77 1023.1
20240529093141 55 26 0.0 0.0 0.00 0.00 0.00 77 1023.1
20240529092627 55 26 0.0 0.0 0.00 0.00 0.00 76 1023.1
20240529092130 56 26 0.0 0.0 0.00 0.00 0.00 75 1022.9
20240529091618 56 26 0.0 0.0 0.00 0.00 0.00 75 1022.9
20240529091139 56 26 0.0 1.0 0.00 0.00 0.00 74 1022.8
20240529090626 56 26 0.0 1.0 0.00 0.00 0.00 74 1022.8
20240529090157 56 26 0.0 1.0 0.00 0.00 0.00 74 1022.9
20240529085647 56 26 0.0 1.0 0.00 0.00 0.00 72 1022.8
20240529085131 57 26 0.0 1.0 0.00 0.00 0.00 73 1022.6
20240529084643 57 26 0.0 2.0 0.00 0.00 0.00 72 1022.6
20240529084123 57 26 0.0 1.0 0.00 0.00 0.00 72 1022.7
20240529083632 57 26 0.0 1.0 0.00 0.00 0.00 71 1022.5
20240529083135 57 26 0.0 3.0 0.00 0.00 0.00 71 1022.4
20240529082624 57 50 0.0 3.0 0.00 0.00 0.00 72 1022.4
20240529082127 57 57 1.0 2.0 0.00 0.00 0.00 72 1022.3
20240529081618 57 59 0.0 1.0 0.00 0.00 0.00 71 1022.2
20240529081120 58 60 0.0 2.0 0.00 0.00 0.00 71 1022.2
20240529080628 58 60 0.0 2.0 0.00 0.00 0.00 71 1022.2
20240529080135 58 60 0.0 2.0 0.00 0.00 0.00 70 1022.2
20240529075623 58 60 0.0 2.0 0.00 0.00 0.00 70 1022.1
20240529075146 58 60 0.0 1.0 0.00 0.00 0.00 69 1022.0
20240529074634 59 60 0.0 1.0 0.00 0.00 0.00 69 1022.0
20240529074135 59 60 0.0 1.0 0.00 0.00 0.00 68 1022.1
20240529073627 59 60 0.0 3.0 0.00 0.00 0.00 67 1022.0
20240529073129 60 60 0.0 3.0 0.00 0.00 0.00 66 1021.9
20240529072624 60 88 1.0 3.0 0.00 0.00 0.00 66 1021.9
20240529072126 60 75 0.0 3.0 0.00 0.00 0.00 65 1021.9
20240529071632 60 68 1.0 4.0 0.00 0.00 0.00 65 1021.8
20240529071134 61 50 1.0 5.0 0.00 0.00 0.00 64 1021.7
20240529070625 61 55 3.0 5.0 0.00 0.00 0.00 64 1021.7
20240529070118 61 54 2.0 4.0 0.00 0.00 0.00 63 1021.7
20240529065651 61 79 1.0 5.0 0.00 0.00 0.00 63 1021.7
20240529065134 61 42 2.0 5.0 0.00 0.00 0.00 63 1021.7
20240529064622 61 55 3.0 5.0 0.00 0.00 0.00 63 1021.7
20240529064124 62 63 1.0 7.0 0.00 0.00 0.00 62 1021.8
20240529063635 62 85 1.0 7.0 0.00 0.00 0.00 62 1022.0
20240529063137 62 57 1.0 3.0 0.00 0.00 0.00 62 1021.8
20240529062625 62 81 2.0 5.0 0.00 0.00 0.00 61 1021.9
20240529062129 62 54 2.0 5.0 0.00 0.00 0.00 61 1022.1
20240529061624 62 42 1.0 4.0 0.00 0.00 0.00 62 1022.0
20240529061128 62 37 2.0 4.0 0.00 0.00 0.00 61 1022.0
20240529060620 62 75 2.0 4.0 0.00 0.00 0.00 61 1022.0
20240529060127 62 54 2.0 4.0 0.00 0.00 0.00 62 1022.1
20240529055618 62 72 1.0 4.0 0.00 0.00 0.00 62 1022.0
20240529055121 62 67 1.0 4.0 0.00 0.00 0.00 61 1022.0
20240529054629 62 36 1.0 4.0 0.00 0.00 0.00 62 1022.0
20240529054151 62 52 1.0 2.0 0.00 0.00 0.00 62 1021.9
20240529053622 62 44 1.0 2.0 0.00 0.00 0.00 62 1022.1
20240529053123 62 45 1.0 3.0 0.00 0.00 0.00 61 1022.1
20240529052632 62 50 1.0 3.0 0.00 0.00 0.00 61 1022.0
20240529052140 63 68 0.0 2.0 0.00 0.00 0.00 62 1022.1
20240529051627 63 68 0.0 3.0 0.00 0.00 0.00 61 1022.0
20240529051130 63 70 1.0 3.0 0.00 0.00 0.00 61 1022.0
20240529050617 63 45 1.0 2.0 0.00 0.00 0.00 61 1022.1
20240529050127 63 45 0.0 3.0 0.00 0.00 0.00 61 1022.2
20240529045631 63 31 1.0 3.0 0.00 0.00 0.00 61 1022.2
20240529045158 62 52 1.0 2.0 0.00 0.00 0.00 62 1022.1
20240529044626 62 46 1.0 2.0 0.00 0.00 0.00 63 1022.2
20240529044130 62 62 0.0 1.0 0.00 0.00 0.00 65 1022.3
20240529043639 62 62 0.0 1.0 0.00 0.00 0.00 65 1022.2
20240529043123 62 62 0.0 0.0 0.00 0.00 0.00 65 1022.3
20240529042651 62 62 0.0 0.0 0.00 0.00 0.00 65 1022.3
20240529042135 62 62 0.0 0.0 0.00 0.00 0.00 65 1022.3
20240529041621 63 62 0.0 1.0 0.00 0.00 0.00 65 1022.1
20240529041124 63 62 0.0 1.0 0.00 0.00 0.00 65 1022.0
20240529040617 63 62 0.0 1.0 0.00 0.00 0.00 64 1022.1